Flag for Falkland Islands Weather past 2 weeks in Stanley, Falkland Islands

Now
37 °F

Light rain. Low clouds.


Feels Like: 27 °F
Forecast: 38 / 44 °F
Wind: 22 mph from Southwest

Location: Mount Pleasant Airport


UV Index: 0 (Low)

Visibility: 4 mi


Pressure: 29.39 "Hg

Humidity: 93%

Dew point: 36 °F

Location of StanleyLocation

Historic Weather in Stanley

°F

Stanley temperature yesterday

Maximum temperature yesterday: 39 °F (at 11:50 AM)
Minimum temperature yesterday: 30 °F (at 6:50 AM)
Average temperature yesterday: 34 °F

Past Weeks' High & Low Weather Summary

 TemperatureHumidityPressure
High57 °F (Apr 8, 11:50 AM)100% (Apr 5, 4:50 AM)30.12 "Hg (Apr 5, 4:50 AM)
Low30 °F (Apr 19, 6:50 AM)46% (Apr 11, 1:50 PM)29.00 "Hg (Apr 10, 10:50 PM)
Average43 °F85%29.63 "Hg
* Reported Apr 5 4:50 AM — Apr 20 4:50 AM, Stanley, Weather by CustomWeather, © 2014

Note: Actual official high and low records may vary slightly from our data, if they occured in-between our weather recording intervals... More about our weather records

Advertising

Historic Weather Conditions — Data for Previous 24 hours

 ConditionsComfort  
Time TempWeatherWind HumidityBarometerVisibility
4:50 AM
Apr 20
36 °FLight rain. Mostly cloudy.25 mph100%29.39 "Hg2 mi
3:50 AM34 °FLight rain. Low clouds.23 mph100%29.39 "Hg4 mi
2:50 AM34 °FLight rain. Passing clouds.21 mph93%29.42 "Hg3 mi
1:50 AM32 °FLight rain. Passing clouds.18 mph100%29.45 "Hg4 mi
12:50 AM32 °FLight rain. Mostly cloudy.16 mph100%29.45 "Hg1 mi
11:50 PM
Apr 19
32 °FLight rain. Passing clouds.25 mph100%29.47 "Hg1 mi
10:50 PM34 °FLight rain. Mostly cloudy.23 mph93%29.50 "Hg4 mi
10:02 PM36 °FLight snow. Mostly cloudy.26 mph81%29.50 "Hg1 mi
9:50 PM36 °FLight rain. Passing clouds.23 mph81%29.50 "HgN/A
8:50 PM34 °FPassing clouds.18 mph87%29.50 "HgN/A
7:50 PM34 °FPassing clouds.16 mph87%29.53 "HgN/A
6:50 PM34 °FPassing clouds.16 mph87%29.53 "HgN/A
5:50 PM34 °FSnow flurries. Scattered clouds.16 mph87%29.56 "HgN/A
4:50 PM34 °FSprinkles. Scattered clouds.23 mph93%29.56 "Hg3 mi
3:50 PM36 °FSprinkles. Scattered clouds.17 mph93%29.53 "HgN/A
2:50 PM36 °FSprinkles. Scattered clouds.26 mph87%29.53 "Hg5 mi
1:50 PM36 °FScattered showers. Broken clouds.16 mph93%29.50 "Hg4 mi
12:50 PM36 °FScattered showers. Partly sunny.29 mph87%29.50 "HgN/A
11:50 AM39 °FLight mixture of precip. Scattered clouds.21 mph75%29.50 "Hg5 mi
10:50 AM36 °FScattered showers. Scattered clouds.15 mph93%29.50 "HgN/A
9:50 AM34 °FPartly sunny.14 mph100%29.50 "HgN/A
9:02 AM34 °FSnow showers. Partly sunny.16 mph87%29.47 "Hg1 mi
8:50 AM32 °FScattered showers. Partly sunny.17 mph93%29.47 "HgN/A
7:50 AM32 °FPassing clouds.17 mph93%29.47 "HgN/A
6:50 AM30 °FPassing clouds.13 mph93%29.47 "HgN/A
Weather by CustomWeather, © 2014

See weather overview